FW6550 Weather Reports


time (UTC)temp
C
wind
direction
speed
KPH
gust
KPH
rain 1hr
cm
rain 24hr
cm
rain mn
cm
humidity
%
barometer
mb
20260506153041 26 0 0.0 9.7 0.00 0.00 0.00 76 1014.1
20260506151534 26 5 0.0 9.7 0.00 0.00 0.00 75 1013.8
20260506150040 25 0 3.2 8.0 0.00 0.00 0.00 77 1013.9
20260506144552 25 180 0.0 4.8 0.00 0.00 0.00 78 1013.9
20260506143041 24 177 0.0 6.4 0.00 0.00 0.00 78 1013.9
20260506141529 24 109 1.6 6.4 0.00 0.00 0.00 78 1013.8
20260506140053 23 0 0.0 6.4 0.00 0.00 0.00 79 1013.9
20260506134536 23 0 0.0 8.0 0.00 0.00 0.00 78 1014.1
20260506133032 22 0 0.0 6.4 0.00 0.00 0.00 75 1014.1
20260506131543 21 0 1.6 9.7 0.00 0.00 0.00 73 1014.2
20260506130054 21 227 0.0 6.4 0.00 0.00 0.00 66 1014.3
20260506124534 21 0 0.0 8.0 0.00 0.00 0.00 64 1014.5
20260506123039 20 0 0.0 4.8 0.00 0.00 0.00 65 1014.5
20260506121534 20 0 0.0 6.4 0.00 0.00 0.00 65 1014.2
20260506120034 20 238 0.0 6.4 0.00 0.00 0.00 69 1013.9
20260506114533 20 193 0.0 6.4 0.00 0.00 0.00 70 1014.1
20260506113038 20 0 0.0 6.4 0.00 0.00 0.00 71 1013.7
20260506111534 20 227 1.6 14.5 0.00 0.00 0.00 72 1013.4
20260506110040 20 91 0.0 19.3 0.00 0.00 0.00 73 1013.2
20260506104532 20 0 0.0 6.4 0.00 0.00 0.00 74 1012.9
20260506103033 20 187 1.6 11.3 0.00 0.00 0.00 75 1012.8
20260506101535 20 173 0.0 9.7 0.00 0.00 0.00 76 1012.7
20260506100034 20 0 1.6 6.4 0.00 0.00 0.00 77 1012.7
20260506094534 20 0 0.0 4.8 0.00 0.00 0.00 78 1012.4
20260506093035 20 0 0.0 6.4 0.00 0.00 0.00 78 1012.0
20260506091533 20 0 0.0 4.8 0.00 0.00 0.00 79 1011.8
20260506090038 20 0 0.0 6.4 0.00 0.00 0.00 79 1011.5
20260506084537 20 188 0.0 4.8 0.00 0.00 0.00 79 1011.4
20260506083035 20 0 0.0 4.8 0.00 0.00 0.00 79 1011.3
20260506081533 20 19 0.0 4.8 0.00 0.00 0.00 79 1011.6
20260506073039 20 0 0.0 4.8 0.00 0.00 0.00 77 1011.8
20260506071534 20 0 0.0 3.2 0.00 0.00 0.00 76 1011.8
20260506061538 21 0 0.0 9.7 0.00 0.00 0.00 74 1012.3
20260506044547 22 234 1.6 8.0 0.00 0.00 0.00 70 1012.4
20260506043031 22 0 1.6 6.4 0.00 0.00 0.00 69 1012.2
20260506041944 22 197 0.0 8.0 0.00 0.00 0.00 69 1012.0
20260506040032 22 0 1.6 9.7 0.00 0.00 0.00 69 1012.1
20260506034530 22 0 0.0 3.2 0.00 0.00 0.00 70 1012.3
20260506033034 22 0 0.0 4.8 0.00 0.00 0.00 69 1012.3
20260506031544 22 197 0.0 9.7 0.00 0.00 0.00 69 1012.2
20260506030032 22 47 1.6 11.3 0.00 0.00 0.00 69 1012.2
20260506024536 22 135 0.0 6.4 0.00 0.00 0.00 69 1011.7
20260506023035 22 0 0.0 6.4 0.00 0.00 0.00 69 1011.7
20260506021534 22 0 0.0 3.2 0.00 0.00 0.00 69 1011.5
20260506020035 23 0 0.0 3.2 0.00 0.00 0.00 69 1011.8
20260506014534 23 0 0.0 3.2 0.00 0.00 0.00 69 1011.6
20260506013041 23 0 0.0 0.0 0.00 0.00 0.00 69 1011.6
20260506011541 23 0 0.0 0.0 0.00 0.00 0.00 67 1011.4
20260506010053 23 0 0.0 1.6 0.00 0.00 0.00 66 1011.8
20260506004534 23 0 0.0 3.2 0.00 0.00 0.00 65 1011.7
20260506003034 24 0 0.0 3.2 0.00 0.00 0.00 64 1011.7
20260506001531 24 0 0.0 3.2 0.00 0.00 0.00 63 1011.7
20260506000037 25 0 0.0 1.6 0.00 0.00 0.00 61 1011.5
20260505234536 25 238 0.0 4.8 0.00 0.00 0.00 60 1011.6
20260505233034 25 159 0.0 3.2 0.00 0.00 0.00 60 1011.7
20260505231532 26 0 0.0 4.8 0.00 0.00 0.00 59 1012.1
20260505230040 26 0 0.0 6.4 0.00 0.00 0.00 60 1012.0
20260505224543 26 219 0.0 4.8 0.00 0.00 0.00 59 1012.2
20260505223036 26 0 1.6 6.4 0.00 0.00 0.00 57 1012.2
20260505221534 26 0 0.0 6.4 0.00 0.00 0.00 58 1012.2
20260505220035 26 0 1.6 6.4 0.00 0.00 0.00 57 1012.4
20260505214534 26 0 0.0 8.0 0.00 0.00 0.00 56 1012.2
20260505213031 26 76 0.0 4.8 0.00 0.00 0.00 59 1012.3
20260505211536 26 160 0.0 6.4 0.00 0.00 0.00 57 1012.5
20260505210034 26 230 1.6 6.4 0.00 0.00 0.00 56 1012.7
20260505204531 26 196 0.0 3.2 0.00 0.00 0.00 57 1012.5
20260505203037 26 0 0.0 4.8 0.00 0.00 0.00 56 1012.8
20260505201542 26 0 1.6 11.3 0.00 0.00 0.00 55 1012.7
20260505200037 27 176 1.6 9.7 0.00 0.00 0.00 54 1012.9
20260505194536 27 350 1.6 6.4 0.00 0.00 0.00 55 1012.9
20260505193032 27 224 1.6 6.4 0.00 0.00 0.00 55 1013.0
20260505191534 27 0 0.0 8.0 0.00 0.00 0.00 53 1013.3
20260505190037 26 47 1.6 9.7 0.00 0.00 0.00 57 1013.3
20260505184534 26 64 0.0 8.0 0.00 0.00 0.00 55 1013.8
20260505183055 27 0 3.2 12.9 0.00 0.00 0.00 56 1014.1
20260505181535 26 267 1.6 11.3 0.00 0.00 0.00 59 1014.2
20260505180037 26 0 0.0 6.4 0.00 0.00 0.00 56 1014.3
20260505174536 26 213 4.8 12.9 0.00 0.00 0.00 55 1014.5
20260505173041 27 0 1.6 6.4 0.00 0.00 0.00 57 1014.5
20260505171543 26 0 0.0 14.5 0.00 0.00 0.00 61 1014.7
20260505170033 25 264 4.8 14.5 0.00 0.00 0.00 58 1015.0
20260505164535 25 0 0.0 12.9 0.00 0.00 0.00 59 1014.7
20260505163035 25 298 1.6 9.7 0.00 0.00 0.00 57 1014.8
20260505161532 25 265 1.6 8.0 0.00 0.00 0.00 61 1014.7